Вернуться в каталог

STARLINK-35350

АктивенСвязьVLEO
NORAD 66187·PAYLOAD·🇺🇸 United States

Запущен Oct 26, 2025 с Cape Canaveral Space Force Station

Loading…

Ближайшие Пролёты (ближайшие 24 часа)

TLE

СвежийSource: CelesTrak SupGP

Эпоха: Sep 14, 2026, 23:21 UTC

1 66187C 25243L   26257.97340278  .00050111  00000+0  14805-2 0  2570
2 66187  53.1577  83.8955 0001267  79.5000 307.8990 15.34366365    12

Отслеживайте STARLINK-35350 в реальном времени с AllMySat

Download on the App Store